Weather History for KBKL - August, 2014

Change the Weather History Date:

Tuesday, August 19, 2014

  Actual Average Record
Temperature  
Mean Temperature 72 °F -  
Max Temperature 82 °F 77 °F 90 °F (2005)
Min Temperature 63 °F 64 °F 57 °F (2007)
Cooling Degree Days 8    
Growing Degree Days 22 (Base 50)    
Moisture  
Dew Point 63 °F    
Average Humidity 75    
Maximum Humidity 94    
Minimum Humidity 57    
Precipitation  
Precipitation 0.55 in - - ()
Sea Level Pressure  
Sea Level Pressure 29.82 in    
Wind  
Wind Speed 6 mph (NNE)    
Max Wind Speed 30 mph    
Max Gust Speed 40 mph    
Visibility 9 miles    
Events Rain    
Averages and records for this station are not official NWS values.
T = Trace of Precipitation, MM = Missing Value Source: NWS Daily Summary

Daily Weather History Graph

Daily Weather History Graph

Search for Another Location

Airport or City:

Trip Planner

Search our weather history database for the weather conditions in past years. The results will help you decide how hot, cold, wet, or windy it might be!

Date:

Astronomy

Aug. 19, 2014 Rise Set
Actual Time 6:39 AM EDT 8:20 PM EDT
Civil Twilight 6:10 AM EDT 8:49 PM EDT
Nautical Twilight 5:34 AM EDT 9:25 PM EDT
Astronomical Twilight 4:56 AM EDT 10:03 PM EDT
Moon 1:29 AM EDT (8/19) 4:17 PM EDT (8/19)
Length of Visible Light 14h 39m
Length of Day
13h 40m
Waning Crescent, 29% of the Moon is Illuminated
Aug 19
Waning Crescent
Aug 25
New
Sep 2
First Quarter
Sep 8
Full
Sep 15
Last Quarter

Hourly Weather History & Observations

Time (EDT) Temp. Heat Index Dew Point Humidity Pressure Visibility Wind Dir Wind Speed Gust Speed Precip Events Conditions
12:53 AM 66.9 °F - 57.9 °F 73% 29.84 in 10.0 mi Calm Calm - N/A   Clear
1:53 AM 66.9 °F - 57.0 °F 70% 29.83 in 10.0 mi Calm Calm - N/A   Clear
2:53 AM 64.9 °F - 55.9 °F 73% 29.83 in 10.0 mi Calm Calm - N/A   Clear
3:53 AM 64.9 °F - 55.9 °F 73% 29.82 in 10.0 mi Calm Calm - N/A   Clear
5:53 AM 63.0 °F - 55.9 °F 78% 29.82 in 10.0 mi SSE 5.8 mph - N/A   Clear
6:53 AM 64.0 °F - 57.0 °F 78% 29.82 in 10.0 mi SSE 3.5 mph - N/A   Mostly Cloudy
7:53 AM 64.9 °F - 57.0 °F 75% 29.83 in 10.0 mi Variable 3.5 mph - N/A   Mostly Cloudy
8:53 AM 69.1 °F - 57.9 °F 68% 29.83 in 10.0 mi SSE 10.4 mph - N/A   Clear
9:53 AM 73.9 °F - 57.9 °F 57% 29.83 in 10.0 mi SSE 6.9 mph - N/A   Clear
10:53 AM 75.9 °F - 62.1 °F 62% 29.83 in 10.0 mi NE 6.9 mph - N/A   Clear
11:53 AM 75.0 °F - 64.0 °F 69% 29.83 in 10.0 mi North 8.1 mph - N/A   Clear
12:53 PM 75.0 °F - 63.0 °F 66% 29.83 in 10.0 mi North 6.9 mph - N/A   Partly Cloudy
1:53 PM 79.0 °F - 63.0 °F 58% 29.80 in 10.0 mi NNE 6.9 mph - N/A   Partly Cloudy
2:53 PM 80.1 °F 82.1 °F 66.0 °F 62% 29.78 in 10.0 mi NE 5.8 mph - N/A   Scattered Clouds
3:53 PM 79.0 °F - 66.9 °F 66% 29.77 in 10.0 mi NNE 4.6 mph - N/A   Scattered Clouds
4:53 PM 80.1 °F 82.7 °F 68.0 °F 67% 29.76 in 10.0 mi NNE 8.1 mph - N/A   Overcast
5:53 PM 75.9 °F - 69.1 °F 79% 29.77 in 10.0 mi North 5.8 mph - N/A   Mostly Cloudy
6:53 PM 77.0 °F - 69.1 °F 76% 29.77 in 10.0 mi North 4.6 mph - N/A   Partly Cloudy
7:53 PM 82.0 °F 84.5 °F 66.9 °F 60% 29.78 in 10.0 mi SSW 5.8 mph - N/A   Clear
8:24 PM 71.6 °F - 64.4 °F 78% 29.83 in 10.0 mi NW 29.9 mph 40.3 mph 0.00 in Rain Light Rain
8:31 PM 69.8 °F - 66.2 °F 88% 29.83 in 10.0 mi NNW 24.2 mph 40.3 mph 0.00 in Rain Light Rain
8:38 PM 68.0 °F - 64.4 °F 88% 29.85 in 2.5 mi NNW 23.0 mph 32.2 mph 0.17 in Rain Heavy Rain
8:41 PM 68.0 °F - 64.4 °F 88% 29.85 in 1.8 mi NNW 19.6 mph 31.1 mph 0.23 in Rain Heavy Rain
8:48 PM 68.0 °F - 66.2 °F 94% 29.85 in 3.0 mi NNW 17.3 mph 25.3 mph 0.26 in Rain Rain
8:53 PM 68.0 °F - 64.9 °F 90% 29.84 in 8.0 mi NNW 13.8 mph 23.0 mph 0.27 in Rain Light Rain
9:53 PM 68.0 °F - 66.0 °F 93% 29.84 in 9.0 mi Calm Calm - 0.26 in Rain Rain
10:53 PM 69.1 °F - 66.0 °F 90% 29.83 in 10.0 mi SSE 6.9 mph - 0.02 in   Partly Cloudy
11:53 PM 69.1 °F - 64.9 °F 87% 29.83 in 10.0 mi SSE 13.8 mph - N/A   Mostly Cloudy